weather.gov     
National Weather Service

Terminal Aerodrome Forecast
NWS Homepage
This page is being discontinued on March 12, 2014.
The same data is available at this site. Please update your bookmarks.
Thank you, and we apologize for the inconvenience.
Please send an email to SR-SRH.Webmaster@noaa.gov with any concerns.


Current Version
Previous Version:    01  02  03  04  05  06  07  08  09  10  11  12  13  14  15  16  17  18  19  20  21  22  23  24  25  26  27  28  29  30  
   31  
[Printable]
960
FTUS45 KGJT 010520
TAFVEL
TAF
KVEL 010520Z 0106/0206 31004KT P6SM SCT060 BKN110
     FM010800 34008KT P6SM VCSH SCT060 BKN100
     FM011200 08008KT P6SM -RA BKN060 OVC090
     FM012000 04010KT P6SM -RA BKN050
     FM020100 32005KT P6SM VCSH SCT060 SCT090=




960
FTUS45 KGJT 010520
TAFVEL
TAF
KVEL 010520Z 0106/0206 31004KT P6SM SCT060 BKN110
     FM010800 34008KT P6SM VCSH SCT060 BKN100
     FM011200 08008KT P6SM -RA BKN060 OVC090
     FM012000 04010KT P6SM -RA BKN050
     FM020100 32005KT P6SM VCSH SCT060 SCT090=


U.S. Dept. of Commerce
NOAA National Weather Service
1325 East West Highway
Silver Spring, MD 20910
E-mail: w-nws.webmaster@noaa.gov
Page last modified: May 16, 2007
NATIONAL WEATHER SERVICE: for Safety, for Work, for Fun - FOR LIFE